Temp
50 51 51 51 51 51 51 51 51 51 51 52 52 53 53 54 53 55 55 55 47 41 47 51 49 43 44 43 36 44 43 43 40 34 35 35 35 41 39 37 37 36 37 37 39 43 40 57 59 54 53 60 62 63
50 51 51 50 51 51 50 50 51 51 51 52 52 53 53 54 53 54 51 57 52 42 48 55 55 55 53 52 43 42 40 39 40 37 38 35 34 37 39 34 45 37 39 38 40 38 47 57 55 60 61 59 62 63
51 51 50 50 50 50 50 50 51 51 51 51 52 52 53 54 53 53 55 54 49 43 49 56 55 58 57 53 50 36 41 45 43 47 39 38 34 35 33 35 35 39 43 40 41 44 45 51 58 60 61 60 63 67
50 50 50 50 50 50 50 50 50 51 51 51 52 52 53 53 53 53 56 58 52 46 37 54 63 58 60 52 47 46 43 45 45 47 42 42 39 42 37 37 38 43 44 42 44 46 47 51 52 57 58 60 62 68
50 50 50 50 50 50 50 50 50 50 51 51 52 53 53 53 52 53 58 61 58 45 41 49 56 61 61 54 50 47 44 42 43 44 44 48 50 46 47 41 38 41 39 38 39 47 44 45 53 55 56 57 59 65
50 50 50 50 50 50 50 50 50 50 51 52 52 52 52 52 52 56 54 59 59 51 40 37 60 57 61 59 55 53 51 48 49 53 52 55 55 50 46 47 43 51 52 52 47 55 56 55 57 57 54 57 61 65
50 50 50 50 50 50 50 50 50 51 51 51 51 51 51 52 55 57 55 57 53 52 41 42 52 61 59 59 60 56 53 57 55 55 52 53 51 53 48 39 46 50 50 52 57 57 54 58 56 58 57 60 62 67
49 50 50 50 50 50 50 50 50 50 50 51 51 51 51 51 52 56 59 51 53 51 51 39 47 53 58 51 52 61 54 56 54 51 52 50 50 51 42 42 43 48 47 51 54 55 57 59 60 61 61 61 61 63
49 50 50 50 50 50 50 50 50 50 50 50 51 52 56 57 59 56 53 52 55 52 44 47 37 36 59 50 51 57 58 46 57 45 42 44 40 37 38 39 41 44 44 46 50 53 57 57 59 60 61 61 59 61
49 50 50 50 50 50 50 50 50 50 50 51 56 57 54 57 52 52 49 46 46 50 49 43 51 41 50 48 48 48 56 53 45 47 48 40 42 47 44 44 46 46 47 48 44 46 52 54 57 59 60 62 61 62
49 50 50 50 50 50 50 50 50 50 53 58 54 54 54 54 54 52 46 44 48 44 49 50 52 44 51 41 41 49 46 53 44 46 44 46 43 48 51 52 53 53 50 49 49 50 52 55 54 57 60 62 63 63
49 49 49 49 50 50 50 50 49 53 54 50 49 50 47 45 50 46 47 50 47 48 53 52 54 52 49 52 43 49 42 49 40 53 45 41 49 54 55 55 57 55 54 50 50 50 54 56 57 58 60 62 63 64
49 49 49 49 49 50 50 49 50 49 50 52 42 39 42 49 37 42 40 46 47 55 57 57 51 55 48 50 46 45 34 38 48 43 44 48 54 57 56 56 57 59 59 57 51 51 52 54 57 58 58 61 63 64
48 49 49 49 49 49 49 49 49 50 50 46 41 35 42 43 46 48 50 55 59 58 58 57 55 50 50 45 49 35 47 44 37 34 38 53 54 56 57 59 57 57 58 58 58 56 55 53 51 55 57 56 57 61
48 48 48 49 49 49 49 49 49 52 50 44 44 36 44 53 57 58 60 58 59 62 58 55 54 53 48 45 47 43 39 34 36 37 47 53 55 56 56 57 57 57 58 58 59 57 52 54 55 56 58 56 56 58
47 48 52 48 48 48 48 51 54 52 47 43 46 45 52 51 55 56 56 57 63 60 60 57 52 46 45 45 36 34 33 31 35 42 55 56 55 56 56 57 57 59 58 58 59 58 56 52 53 56 56 53 53 53
46 47 49 48 48 48 49 50 52 43 43 42 44 54 54 55 55 58 60 60 63 57 52 56 44 43 49 43 37 38 34 37 49 57 59 56 55 56 57 58 58 58 58 59 58 59 56 57 56 57 53 52 54 56
46 51 49 48 47 46 52 51 49 46 41 47 47 54 55 56 57 59 60 61 58 57 56 50 57 45 39 35 40 41 45 54 58 58 59 59 57 58 59 58 59 59 59 58 58 59 59 55 53 53 56 56 53 53
47 49 48 48 46 43 40 48 50 43 45 52 55 57 56 56 59 61 61 62 60 62 60 55 49 47 48 54 54 57 59 56 56 59 60 58 58 59 59 59 59 59 59 59 59 59 59 55 53 54 55 57 53 52
46 47 47 47 46 40 41 46 53 45 42 52 55 53 55 56 59 59 60 59 56 55 52 48 50 55 58 60 62 61 62 64 60 58 59 59 61 59 58 60 62 60 61 61 62 52 60 59 55 52 53 54 52 48
47 50 48 50 44 41 38 46 47 48 50 48 54 55 55 57 54 54 55 59 53 52 50 55 57 62 64 65 66 65 64 63 61 61 61 61 62 63 61 62 62 64 61 61 60 60 57 57 51 53 53 52 54 53
46 46 45 46 40 39 38 48 47 51 48 50 51 54 50 49 51 54 58 52 52 57 59 60 61 63 63 62 63 62 65 64 63 62 44 50 60 60 60 63 63 61 62 62 61 60 60 59 53 58 57 55 54 53
46 45 41 40 35 35 37 49 42 47 43 48 51 47 49 49 55 57 49 54 59 64 64 62 62 63 63 65 65 64 63 62 63 62 62 62 64 63 64 63 65 61 60 61 62 61 60 45 53 57 59 57 55 51
44 39 34 34 34 33 41 38 40 42 46 44 44 44 48 51 55 49 46 52 60 64 62 60 61 60 61 59 61 62 64 64 64 64 63 62 61 58 62 65 65 65 62 61 59 59 61 60 49 58 56 53 51 48
32 33 32 30 34 33 34 38 39 40 40 44 42 44 47 53 45 46 45 53 58 57 57 58 59 60 59 61 62 64 65 65 62 57 60 62 64 62 61 64 63 63 64 60 58 59 59 58 57 56 53 49 45 45
28 34 31 33 33 34 39 37 40 41 43 42 43 48 51 45 41 41 49 55 55 55 54 55 56 56 59 61 60 62 61 64 64 61 62 64 63 62 61 61 60 58 64 63 60 57 56 56 54 52 51 47 39 43
27 30 37 45 41 39 37 42 44 41 40 39 43 43 41 34 39 49 52 56 56 57 58 59 58 57 57 59 63 64 65 64 63 63 64 64 64 64 64 61 57 58 61 60 60 58 55 55 53 51 51 48 44 43
34 40 35 39 40 40 35 37 39 38 42 47 46 39 36 39 43 54 56 58 58 58 58 60 61 60 59 61 64 63 63 63 60 61 61 60 60 61 61 61 60 35 58 58 58 59 57 55 53 51 49 48 47 44
32 40 42 36 39 40 39 38 40 46 50 49 42 41 44 51 54 53 56 59 58 57 55 56 57 59 60 62 63 64 63 61 57 53 52 53 53 55 60 59 57 59 57 53 31 41 49 52 52 51 49 49 48 46
36 42 36 36 34 34 41 45 44 50 50 49 50 50 49 51 53 55 54 53 52 52 53 55 56 56 56 57 56 54 60 62 63 60 57 56 57 60 59 59 58 59 57 56 54 49 32 46 43 52 49 48 45 42
42 41 35 34 35 42 46 48 49 50 50 49 50 46 45 47 43 40 38 40 47 45 44 44 50 56 55 54 54 53 52 57 58 57 57 61 60 58 58 58 59 59 57 56 54 53 52 51 49 46 44 43 42 41
39 36 35 31 34 43 47 44 43 43 44 43 43 45 45 39 36 34 35 35 36 37 35 35 37 39 44 46 48 51 40 53 51 51 53 55 55 55 56 57 57 57 55 53 52 50 48 46 43 43 42 41 41 41
36 37 37 34 34 34 39 39 38 39 42 40 42 44 42 37 29 33 37 36 34 33 33 36 38 41 42 40 40 41 40 43 35 31 33 32 33 41 51 50 50 52 50 49 48 47 45 44 43 42 41 40 39 38
MSLP
1027.90 1027.37 1026.93 1026.44 1025.88 1025.26 1024.67 1024.06 1023.44 1022.80 1022.13 1021.50 1020.85 1020.27 1019.71 1019.17 1018.91 1018.69 1017.75 1018.15 1018.48 1017.56 1015.45 1014.83 1014.46 1014.15 1013.86 1013.68 1013.16 1012.49 1012.01 1011.44 1010.88 1010.33 1009.36 1008.34 1007.12 1005.79 1005.28 1005.32 1005.15 1005.05 1004.56 1004.15 1003.57 1001.48 1001.14 1001.00 999.62 999.14 1000.76 1000.29 1000.02 999.54
1027.38 1026.90 1026.42 1025.99 1025.45 1024.81 1024.22 1023.61 1022.97 1022.37 1021.72 1021.03 1020.43 1019.79 1019.24 1018.76 1018.44 1018.31 1017.46 1017.37 1018.06 1017.90 1015.35 1014.44 1013.79 1013.61 1013.56 1013.24 1013.58 1013.39 1012.91 1012.54 1011.64 1010.94 1010.19 1009.31 1008.34 1007.40 1006.37 1005.42 1005.64 1005.89 1005.71 1004.99 1004.60 1004.17 1003.82 1002.35 1002.10 1002.07 1001.92 1001.31 1000.60 999.89
1026.83 1026.41 1025.91 1025.35 1024.88 1024.31 1023.70 1023.10 1022.43 1021.77 1021.21 1020.55 1019.84 1019.26 1018.64 1018.24 1017.93 1017.82 1017.12 1017.19 1017.67 1016.82 1014.55 1012.58 1011.77 1012.24 1012.73 1012.87 1013.23 1013.90 1013.16 1012.46 1011.86 1011.65 1010.93 1009.67 1008.92 1008.50 1007.68 1007.32 1007.09 1006.90 1006.61 1005.71 1005.21 1005.14 1004.72 1003.91 1003.53 1003.07 1002.65 1002.04 1001.23 1000.17
1026.22 1025.81 1025.39 1024.84 1024.28 1023.82 1023.14 1022.54 1021.90 1021.17 1020.49 1019.98 1019.33 1018.61 1018.02 1017.55 1017.33 1017.25 1016.56 1016.36 1016.95 1016.58 1015.26 1011.64 1011.39 1011.26 1011.69 1012.46 1012.93 1013.01 1013.16 1012.82 1012.35 1011.46 1010.31 1008.93 1008.30 1008.56 1008.03 1008.03 1007.57 1007.31 1006.93 1006.34 1005.31 1005.41 1005.03 1004.44 1004.40 1003.81 1003.17 1002.53 1001.69 1000.34
1025.54 1025.11 1024.67 1024.25 1023.69 1023.18 1022.69 1021.95 1021.27 1020.60 1019.80 1019.11 1018.60 1017.89 1017.32 1016.93 1016.72 1016.63 1016.05 1015.65 1016.06 1016.81 1015.23 1012.65 1011.66 1010.86 1011.12 1011.67 1012.03 1012.36 1012.53 1012.26 1011.48 1010.27 1009.05 1007.42 1007.33 1007.57 1007.08 1007.83 1008.11 1008.24 1007.93 1007.25 1006.19 1005.88 1005.89 1005.49 1004.77 1004.35 1003.51 1002.82 1002.13 1000.60
1024.91 1024.47 1024.05 1023.61 1023.14 1022.59 1022.01 1021.46 1020.70 1019.97 1019.21 1018.42 1017.77 1017.06 1016.46 1016.04 1016.10 1015.94 1015.12 1015.34 1015.70 1016.57 1015.91 1013.60 1010.85 1010.56 1010.20 1010.29 1010.87 1011.00 1011.17 1011.15 1010.58 1008.85 1007.72 1007.13 1007.33 1007.56 1006.57 1006.35 1008.11 1007.42 1007.27 1007.07 1006.47 1005.77 1005.22 1004.91 1004.45 1004.17 1003.86 1003.12 1002.11 1000.91
1024.17 1023.85 1023.44 1022.98 1022.60 1022.05 1021.45 1020.84 1020.15 1019.31 1018.48 1017.68 1017.00 1016.17 1015.36 1015.15 1015.31 1014.65 1014.84 1014.69 1015.63 1016.38 1015.68 1013.37 1010.43 1009.95 1010.18 1009.83 1009.94 1010.18 1010.45 1009.85 1009.21 1008.13 1007.60 1007.22 1007.25 1007.48 1006.88 1007.50 1008.05 1007.99 1007.65 1007.07 1006.11 1005.35 1004.68 1003.93 1003.98 1004.00 1003.61 1002.77 1001.91 1000.87
1023.48 1023.14 1022.78 1022.33 1021.95 1021.54 1020.95 1020.33 1019.56 1018.76 1017.78 1016.94 1016.33 1015.70 1015.00 1015.02 1015.09 1014.63 1014.83 1015.48 1015.60 1015.21 1014.65 1013.42 1010.90 1009.44 1010.20 1009.56 1009.35 1009.49 1009.34 1009.17 1008.81 1008.52 1008.29 1007.97 1007.70 1007.58 1007.89 1008.94 1008.88 1008.27 1007.88 1006.88 1005.86 1005.67 1004.99 1004.40 1003.94 1003.31 1003.01 1002.47 1001.73 1000.87
1022.87 1022.51 1022.13 1021.77 1021.36 1020.95 1020.49 1019.90 1019.22 1018.34 1017.25 1016.22 1015.67 1015.48 1015.26 1014.81 1013.86 1014.49 1015.08 1015.38 1015.28 1015.15 1013.86 1012.83 1011.77 1010.45 1009.93 1010.16 1009.94 1009.14 1009.16 1008.57 1008.82 1008.94 1009.17 1009.38 1009.02 1009.04 1009.38 1009.23 1008.71 1008.21 1007.73 1007.04 1006.40 1005.68 1004.69 1004.07 1003.40 1002.89 1002.49 1002.12 1001.65 1000.82
1022.30 1021.88 1021.49 1021.09 1020.75 1020.40 1019.99 1019.51 1018.92 1017.96 1016.76 1015.58 1014.88 1014.64 1013.70 1014.35 1015.23 1015.19 1015.21 1014.85 1014.70 1014.07 1013.69 1012.50 1011.68 1011.04 1011.02 1010.24 1009.80 1009.50 1008.90 1008.15 1007.89 1008.67 1009.20 1009.16 1008.62 1008.85 1009.36 1009.15 1008.59 1008.03 1007.51 1006.90 1006.16 1005.42 1004.48 1003.91 1003.26 1002.64 1002.19 1001.73 1001.38 1000.89
1021.90 1021.45 1020.91 1020.50 1020.13 1019.76 1019.43 1019.09 1018.57 1017.83 1016.17 1015.50 1014.94 1014.61 1015.05 1014.80 1014.41 1013.67 1013.13 1013.04 1012.49 1012.12 1011.79 1011.17 1010.78 1010.85 1011.19 1010.88 1010.51 1010.25 1009.25 1008.43 1007.59 1008.01 1008.21 1007.85 1007.59 1007.75 1007.93 1007.84 1007.56 1007.08 1006.94 1006.58 1006.11 1005.39 1004.72 1004.10 1003.43 1002.69 1001.94 1001.50 1001.00 1000.55
1021.42 1020.92 1020.46 1020.03 1019.72 1019.24 1018.89 1018.61 1018.38 1017.53 1017.09 1017.19 1017.23 1016.51 1015.80 1014.63 1012.99 1012.24 1011.20 1011.04 1010.78 1009.69 1009.81 1009.68 1009.75 1010.49 1010.80 1011.12 1010.84 1010.11 1009.58 1008.88 1007.83 1008.09 1007.62 1007.00 1007.10 1007.04 1007.08 1006.92 1006.61 1006.45 1006.37 1006.13 1005.87 1005.34 1004.59 1003.88 1003.20 1002.50 1001.87 1001.21 1000.70 1000.37
1020.83 1020.29 1019.89 1019.37 1019.06 1018.74 1018.46 1018.20 1018.11 1017.80 1016.99 1016.24 1016.57 1015.69 1014.56 1012.85 1011.68 1010.13 1009.34 1008.63 1008.54 1008.44 1008.50 1008.81 1009.25 1009.74 1010.95 1010.92 1010.56 1010.25 1009.99 1009.21 1009.08 1007.85 1006.99 1006.86 1006.57 1006.44 1006.51 1006.52 1006.34 1005.83 1005.45 1005.10 1005.27 1005.09 1004.62 1004.03 1003.42 1002.50 1001.75 1001.16 1000.58 1000.13
1020.28 1019.74 1019.30 1018.85 1018.26 1018.14 1017.88 1017.87 1017.68 1017.30 1016.56 1015.42 1014.89 1013.91 1012.28 1010.50 1009.29 1008.14 1007.68 1007.33 1007.48 1007.70 1007.91 1008.25 1008.57 1009.38 1009.95 1010.16 1009.97 1010.13 1009.59 1009.59 1008.73 1007.87 1007.02 1006.37 1006.43 1006.46 1006.36 1006.16 1005.88 1005.57 1005.18 1004.75 1004.42 1004.17 1003.95 1003.88 1003.57 1002.99 1002.29 1001.78 1001.12 1000.29
1019.75 1019.21 1018.61 1018.01 1017.78 1017.79 1017.61 1017.36 1017.17 1016.72 1015.92 1014.79 1013.71 1011.92 1009.66 1008.43 1007.74 1007.39 1007.20 1007.21 1007.20 1007.48 1007.74 1007.99 1008.26 1008.77 1009.03 1009.41 1009.68 1009.84 1009.45 1009.26 1008.67 1007.76 1006.95 1006.66 1006.64 1006.47 1006.28 1006.17 1005.90 1005.65 1005.26 1004.83 1004.51 1004.37 1004.48 1004.14 1003.56 1002.89 1002.36 1002.11 1001.58 1000.85
1019.46 1018.77 1017.56 1017.75 1017.73 1017.29 1017.05 1016.51 1015.91 1015.69 1015.07 1013.97 1011.98 1009.87 1008.44 1007.78 1006.74 1006.72 1006.64 1006.36 1006.46 1006.99 1007.50 1007.56 1007.35 1007.78 1008.02 1008.73 1009.30 1009.28 1009.31 1008.81 1008.16 1007.54 1006.70 1006.60 1006.61 1006.48 1006.38 1006.18 1005.99 1005.66 1005.40 1005.07 1004.76 1004.55 1004.54 1004.50 1004.15 1003.31 1002.96 1002.71 1002.23 1001.79
1019.14 1018.07 1017.71 1017.62 1017.51 1016.99 1016.28 1016.07 1015.22 1014.75 1013.42 1011.78 1009.65 1008.37 1007.59 1006.70 1006.25 1005.74 1005.76 1005.72 1006.09 1006.49 1006.25 1006.39 1006.63 1006.71 1007.65 1007.60 1007.98 1008.67 1008.42 1007.69 1007.01 1006.34 1006.32 1006.53 1006.53 1006.48 1006.41 1006.21 1005.95 1005.73 1005.47 1005.23 1005.03 1004.65 1004.65 1004.35 1004.04 1003.47 1002.98 1002.77 1002.60 1002.17
1018.51 1017.53 1017.62 1017.35 1017.14 1016.59 1015.46 1015.06 1013.85 1012.73 1011.32 1009.64 1008.31 1006.81 1006.70 1006.34 1005.82 1005.49 1005.61 1005.82 1006.09 1005.68 1005.61 1005.81 1005.75 1006.07 1006.13 1006.20 1006.18 1006.58 1006.63 1006.30 1006.11 1006.04 1005.87 1006.07 1006.28 1006.31 1006.32 1006.20 1005.98 1005.73 1005.43 1005.26 1005.18 1004.95 1004.75 1004.79 1004.55 1004.04 1003.56 1003.37 1003.03 1002.42
1018.12 1017.69 1017.18 1017.04 1016.93 1016.77 1015.64 1013.74 1013.09 1011.27 1009.49 1008.28 1007.12 1006.64 1006.32 1005.82 1005.49 1005.38 1005.18 1005.22 1005.70 1005.31 1005.31 1005.41 1004.95 1004.22 1004.23 1004.33 1004.39 1004.26 1004.44 1005.15 1005.12 1005.24 1005.51 1005.71 1005.84 1005.95 1006.10 1006.07 1006.04 1005.72 1005.55 1005.25 1004.83 1004.59 1004.58 1004.86 1004.88 1004.45 1003.99 1003.31 1002.97 1002.86
1017.62 1017.01 1016.66 1016.57 1016.60 1016.26 1014.96 1012.93 1012.29 1010.80 1008.97 1007.39 1006.77 1005.93 1005.57 1005.17 1004.77 1004.73 1004.67 1004.79 1005.29 1005.25 1004.62 1004.12 1003.50 1003.26 1003.07 1002.96 1003.26 1003.50 1003.63 1003.91 1004.45 1004.44 1004.41 1005.00 1005.34 1005.66 1005.65 1005.66 1005.60 1005.63 1005.18 1005.05 1004.68 1004.65 1004.36 1004.44 1004.85 1004.76 1004.35 1003.92 1003.72 1003.72
1017.02 1016.31 1016.33 1016.09 1016.12 1015.89 1014.71 1012.32 1010.92 1009.74 1008.46 1007.46 1006.16 1005.57 1004.72 1004.56 1004.60 1004.20 1004.11 1004.24 1004.36 1003.57 1002.96 1002.73 1002.55 1002.35 1002.37 1002.39 1002.39 1002.56 1003.03 1003.43 1003.56 1003.85 1003.92 1004.20 1004.75 1004.95 1005.22 1005.20 1005.31 1005.05 1004.85 1004.63 1004.56 1004.39 1004.39 1004.80 1005.35 1004.89 1004.65 1004.34 1003.91 1003.74
1016.57 1016.50 1016.27 1015.95 1015.58 1014.98 1013.72 1011.75 1010.43 1009.38 1008.67 1006.92 1006.21 1005.34 1004.47 1003.97 1003.66 1003.26 1003.50 1003.57 1002.86 1001.98 1001.75 1001.65 1001.57 1001.49 1001.55 1001.63 1001.93 1002.61 1002.50 1002.78 1003.29 1003.48 1004.42 1004.75 1004.44 1004.56 1004.81 1004.90 1004.86 1004.75 1004.53 1004.49 1004.64 1004.48 1004.54 1005.06 1005.70 1004.71 1004.49 1004.45 1004.16 1004.16
1016.62 1016.40 1016.01 1015.50 1014.91 1013.79 1011.80 1010.63 1009.87 1008.60 1007.50 1005.91 1005.52 1004.63 1003.82 1003.61 1003.22 1003.63 1003.03 1002.40 1001.46 1001.05 1001.09 1001.14 1001.15 1001.18 1001.11 1001.06 1001.14 1001.74 1002.33 1002.47 1002.46 1002.93 1003.34 1003.73 1003.98 1004.33 1004.53 1004.71 1004.79 1004.75 1004.58 1004.50 1004.81 1004.80 1004.75 1005.52 1005.50 1005.18 1004.81 1004.52 1004.44 1004.65
1015.89 1015.69 1015.01 1014.20 1013.40 1011.88 1010.80 1009.67 1009.10 1007.93 1006.50 1005.71 1004.91 1003.91 1003.17 1002.91 1003.26 1002.95 1002.11 1001.71 1000.97 1000.79 1001.10 1001.13 1001.09 1000.97 1000.96 1001.27 1001.06 1001.14 1001.53 1001.98 1001.97 1002.32 1003.03 1003.36 1003.56 1004.34 1004.41 1004.42 1004.64 1004.86 1005.06 1005.07 1005.17 1005.04 1004.85 1004.89 1005.33 1005.12 1005.36 1005.47 1005.43 1005.47
1015.42 1014.47 1014.05 1012.76 1011.94 1011.12 1009.85 1008.45 1007.52 1006.72 1005.49 1004.74 1004.35 1003.62 1003.00 1003.05 1002.68 1001.90 1001.60 1001.12 1001.20 1001.49 1001.76 1001.58 1001.18 1000.82 1000.34 1000.02 1000.27 1000.55 1001.05 1001.41 1001.54 1002.17 1003.12 1003.18 1003.16 1003.79 1004.11 1004.48 1004.77 1005.12 1005.18 1005.14 1005.25 1005.09 1005.06 1005.19 1005.27 1005.45 1005.78 1006.23 1006.52 1006.22
1013.70 1012.38 1012.03 1010.81 1010.13 1009.58 1008.06 1006.83 1005.86 1005.01 1004.48 1004.00 1003.48 1003.23 1002.96 1002.82 1002.48 1001.48 1001.23 1001.56 1001.83 1002.06 1002.20 1001.96 1001.56 1001.20 1000.71 1000.50 1000.31 1000.41 1001.02 1001.42 1001.41 1001.70 1002.35 1002.77 1003.14 1003.41 1003.78 1004.04 1004.29 1004.75 1005.42 1005.43 1005.37 1005.35 1005.45 1005.63 1005.80 1005.97 1006.21 1006.65 1007.00 1006.94
1012.01 1010.58 1009.86 1009.37 1008.62 1008.13 1007.45 1006.52 1005.70 1005.11 1004.22 1003.60 1003.05 1003.02 1003.03 1002.68 1001.60 1001.06 1002.03 1002.29 1002.23 1002.45 1002.58 1002.30 1002.05 1001.64 1001.31 1000.78 1000.62 1000.65 1000.90 1001.32 1001.47 1001.73 1002.50 1003.12 1003.49 1003.91 1003.97 1004.06 1004.51 1005.12 1005.59 1005.74 1005.75 1005.76 1005.77 1005.91 1006.14 1006.38 1006.51 1006.96 1007.44 1007.55
1010.30 1008.71 1007.85 1007.71 1007.55 1007.46 1006.97 1006.21 1005.40 1004.43 1003.57 1003.13 1002.94 1002.50 1002.52 1002.04 1001.56 1001.67 1001.91 1002.44 1002.61 1002.68 1002.56 1002.19 1002.00 1001.88 1001.64 1001.19 1000.76 1000.89 1001.14 1001.70 1002.44 1002.70 1003.25 1003.79 1004.21 1004.44 1004.64 1004.74 1005.25 1006.18 1005.82 1006.21 1006.16 1006.19 1006.39 1006.50 1006.65 1006.84 1006.97 1007.23 1007.57 1007.95
1008.67 1007.85 1007.47 1006.67 1006.51 1006.14 1005.74 1005.42 1004.73 1003.97 1003.43 1002.88 1002.70 1002.59 1002.34 1002.00 1002.32 1002.42 1002.41 1002.29 1002.76 1002.59 1002.38 1002.13 1001.89 1001.94 1001.79 1001.79 1001.49 1001.22 1001.40 1001.78 1002.00 1002.27 1002.60 1003.03 1003.81 1004.27 1004.44 1004.84 1005.57 1005.66 1006.23 1006.92 1007.80 1007.38 1007.22 1007.44 1007.43 1007.41 1007.41 1007.53 1007.97 1008.32
1006.91 1007.09 1006.69 1006.20 1005.84 1005.27 1004.77 1004.52 1004.05 1003.62 1003.35 1003.36 1003.27 1003.17 1003.00 1002.79 1002.97 1003.73 1003.62 1003.67 1003.42 1003.21 1003.13 1002.88 1002.53 1002.16 1001.76 1001.60 1001.72 1002.23 1001.88 1001.72 1001.57 1001.75 1001.94 1002.21 1002.74 1003.49 1004.14 1004.47 1004.87 1005.29 1005.94 1006.30 1007.09 1007.79 1008.33 1007.81 1008.09 1007.41 1007.65 1007.82 1008.23 1008.70
1005.66 1005.48 1005.48 1005.49 1005.05 1004.28 1003.75 1003.55 1003.55 1003.35 1003.02 1002.94 1003.01 1002.99 1003.01 1003.40 1004.66 1005.89 1006.10 1005.83 1004.91 1004.72 1004.45 1003.91 1002.90 1002.44 1002.44 1002.28 1002.30 1002.33 1002.47 1002.89 1002.92 1003.15 1003.22 1003.09 1003.23 1003.84 1004.18 1004.47 1004.75 1005.03 1005.53 1006.04 1006.64 1007.11 1007.55 1007.81 1008.04 1008.15 1008.17 1008.32 1008.67 1008.82
1004.91 1004.58 1004.55 1004.31 1004.08 1003.88 1003.49 1003.11 1002.81 1002.65 1002.39 1002.29 1002.37 1002.73 1003.20 1004.28 1005.13 1006.49 1007.33 1006.94 1006.41 1006.02 1005.87 1005.58 1005.02 1004.66 1004.40 1003.96 1004.12 1004.06 1003.75 1003.85 1004.02 1004.14 1003.98 1004.08 1004.44 1004.81 1005.05 1005.18 1005.34 1005.39 1005.75 1006.29 1006.80 1007.37 1007.91 1008.25 1008.55 1008.69 1008.88 1009.04 1009.27 1009.44
1004.19 1004.06 1003.96 1003.81 1003.52 1003.27 1003.17 1003.13 1002.63 1002.03 1001.84 1001.87 1002.00 1002.23 1003.00 1004.29 1006.04 1007.56 1008.03 1007.95 1007.68 1007.29 1007.03 1006.73 1006.31 1005.85 1005.67 1005.64 1005.74 1005.98 1006.05 1006.15 1006.39 1006.30 1006.08 1006.05 1006.09 1005.95 1005.91 1006.16 1006.17 1006.34 1006.74 1007.06 1007.39 1007.91 1008.28 1008.51 1008.83 1009.13 1009.39 1009.73 1010.15 1010.50
Wind_Speed
17 17 18 20 20 19 20 21 22 22 22 21 20 19 17 14 11 5 5 8 3 4 13 13 11 12 9 9 4 9 9 2 4 3 3 4 4 5 5 5 4 5 6 5 4 7 7 16 2 5 9 7 9 9
17 18 17 18 19 19 19 21 21 21 21 21 21 19 17 14 10 6 5 4 5 5 10 18 18 18 19 19 11 3 5 6 3 4 2 3 3 3 7 2 3 1 4 3 5 4 8 4 10 10 9 9 11 12
18 19 19 18 18 19 20 20 21 22 22 22 22 20 18 15 11 6 5 3 3 4 9 7 2 1 5 9 6 3 3 4 3 4 3 2 3 2 4 4 3 5 5 2 3 5 8 5 10 11 13 12 14 12
18 19 19 20 19 19 20 21 21 22 23 23 23 21 18 15 10 8 6 3 2 3 4 2 5 9 3 7 8 13 5 6 5 6 3 3 2 3 3 2 4 6 5 8 1 6 7 2 13 15 16 14 16 14
17 18 19 19 21 21 19 21 22 23 24 24 24 24 20 15 9 6 5 5 5 3 5 8 16 2 5 5 8 9 10 5 3 4 5 3 3 4 3 4 3 5 5 4 3 5 2 9 15 16 14 16 17 16
17 17 18 18 18 20 20 21 22 23 25 27 27 27 22 14 8 6 5 5 6 4 3 4 5 4 6 3 2 3 4 5 4 4 3 3 2 5 5 3 2 5 2 5 8 14 14 13 12 6 16 17 15 17
17 17 18 19 19 19 20 21 23 24 25 27 25 27 21 6 8 3 5 5 8 5 3 5 4 3 5 3 1 3 2 2 5 4 3 4 3 5 4 5 14 14 15 15 16 13 14 7 13 14 14 16 15 17
18 17 17 18 17 19 19 22 24 25 25 25 24 21 5 11 3 4 4 9 9 4 3 4 5 3 4 4 2 3 2 2 2 4 4 6 6 5 4 14 15 14 14 13 11 14 14 15 15 14 12 13 15 14
18 17 16 17 18 18 18 20 23 24 27 26 19 3 5 6 4 5 3 9 4 3 3 2 3 4 4 2 4 2 2 2 2 2 3 4 3 3 6 13 14 14 11 14 14 17 15 13 14 13 12 11 13 13
16 16 16 16 17 17 17 18 21 23 28 24 5 5 4 4 7 7 4 4 4 4 4 4 2 4 3 2 2 3 1 2 2 4 2 1 3 6 3 8 10 11 11 12 12 11 13 12 13 13 13 12 11 13
18 18 18 17 17 17 17 17 19 22 11 5 5 3 6 4 4 4 3 4 4 4 5 5 4 5 2 3 3 1 4 1 3 4 2 2 4 8 5 7 8 10 9 11 10 11 11 12 12 13 13 11 12 12
19 19 18 18 18 18 17 15 18 8 6 9 9 7 3 4 4 5 4 4 5 2 5 3 2 3 0 2 2 2 3 2 2 2 3 2 5 10 11 13 13 10 11 11 11 12 11 10 11 11 12 13 12 13
19 18 18 17 17 17 16 15 10 12 14 2 3 4 3 3 4 6 6 4 4 5 4 2 3 1 2 2 3 2 2 2 4 3 1 2 6 8 10 10 12 13 14 12 9 11 12 12 13 13 12 11 13 11
20 18 18 17 17 18 10 10 13 10 5 3 3 5 6 6 6 4 5 2 2 4 3 3 2 3 3 4 2 2 0 1 2 2 2 3 7 9 10 11 11 15 16 17 18 10 12 13 13 12 13 14 14 14
20 20 20 17 4 7 13 15 15 5 4 5 4 6 7 7 3 3 4 3 5 3 3 3 3 3 3 3 2 2 3 3 3 2 2 3 7 7 8 10 12 12 13 14 15 15 13 14 13 13 13 13 13 14
20 21 3 3 9 17 16 15 4 4 3 5 7 6 5 5 7 6 7 8 4 4 2 3 3 4 4 2 3 4 2 4 3 3 4 4 5 6 7 8 10 11 12 12 12 14 14 12 12 14 15 13 14 14
17 4 3 8 13 19 17 5 4 6 6 6 7 8 10 7 7 6 4 6 5 6 5 2 4 3 2 3 2 3 5 4 4 3 2 4 4 4 6 7 8 10 11 12 12 12 11 13 13 12 15 13 13 14
7 7 15 16 11 8 3 5 4 5 9 8 7 7 8 7 8 6 5 4 6 7 5 6 2 7 5 4 3 5 6 5 3 3 4 3 4 4 3 6 7 8 10 11 11 11 11 12 12 10 13 14 10 13
14 14 19 15 6 2 4 4 4 6 8 7 8 8 6 7 7 8 7 6 7 6 3 4 8 7 9 6 7 5 3 4 4 2 3 4 4 4 3 4 5 6 8 9 10 9 8 10 10 10 9 11 11 11
22 16 11 6 4 3 6 4 3 6 5 3 4 6 6 7 5 5 7 7 7 6 8 8 12 11 9 7 6 6 6 3 4 5 4 6 5 5 5 3 2 4 5 6 7 5 9 9 9 9 9 9 11 11
10 1 4 4 3 4 4 4 5 4 5 5 6 5 5 4 7 7 7 6 8 6 9 10 11 11 12 10 9 5 6 7 7 5 3 3 4 3 3 4 4 3 4 4 5 6 6 8 8 8 8 8 8 9
5 1 3 3 4 4 6 6 6 4 5 6 6 7 7 7 9 8 5 7 6 11 10 9 9 10 9 12 9 11 10 8 9 4 1 3 5 3 3 3 3 4 4 4 5 6 6 7 6 7 8 8 8 10
9 3 3 4 5 5 7 5 6 5 6 4 3 5 4 3 3 3 4 5 5 4 5 6 7 10 10 11 8 8 10 11 8 7 5 5 3 3 2 3 2 4 5 4 4 5 5 3 4 7 9 9 9 9
2 4 5 6 8 5 4 5 4 4 5 7 5 8 7 4 2 4 6 6 7 3 4 6 5 6 6 8 8 8 9 9 8 6 5 5 4 3 3 1 1 1 3 4 4 4 4 5 4 6 8 8 10 10
5 6 5 8 5 5 6 6 9 8 10 11 13 11 4 3 4 5 5 4 3 4 4 5 5 5 6 6 6 5 6 8 8 7 6 6 3 5 4 2 2 2 3 3 3 4 5 5 6 7 8 9 12 11
9 8 8 5 3 7 8 7 8 12 13 14 7 5 1 4 6 6 3 1 3 4 5 5 5 5 5 6 6 5 6 7 6 7 8 6 4 3 2 1 2 6 1 2 2 4 6 6 7 8 8 9 9 11
8 9 8 8 5 5 5 6 8 6 7 5 5 5 4 5 6 2 4 3 2 4 4 5 6 6 6 6 3 4 5 7 8 6 7 5 5 3 2 2 3 5 3 3 3 4 5 5 6 6 6 6 8 9
10 9 18 13 10 7 13 13 11 6 5 4 3 6 5 5 3 3 3 3 4 4 5 6 6 5 5 5 3 5 7 7 7 9 8 6 5 4 5 5 6 4 4 4 3 4 4 5 5 5 6 6 6 7
8 8 10 16 17 14 13 12 12 10 11 11 11 12 13 7 7 6 6 6 6 7 8 8 6 5 4 2 2 5 7 8 12 14 14 9 8 6 6 8 8 6 5 7 8 7 6 5 5 5 6 6 6 6
16 10 14 18 19 20 16 13 12 11 10 9 9 10 10 10 5 6 6 7 6 7 8 9 9 7 6 4 4 3 4 6 7 7 10 9 8 8 8 8 8 8 6 6 7 7 5 5 5 3 4 5 5 5
10 9 9 12 16 15 14 11 11 13 13 12 11 11 12 11 4 5 7 7 7 6 6 8 9 1 2 1 2 4 5 2 2 0 4 2 5 6 6 6 6 6 6 6 5 5 6 4 4 5 6 7 8 7
9 13 14 17 14 12 11 11 10 11 11 11 12 11 10 5 4 3 5 6 5 5 5 6 7 6 7 6 6 5 7 4 5 5 6 5 6 4 4 3 4 4 6 7 7 6 6 6 5 5 6 7 7 9
11 12 13 10 8 7 8 8 5 8 9 10 10 9 5 2 5 4 3 5 4 5 5 6 4 4 8 9 7 6 7 8 9 8 8 9 8 6 5 5 4 4 7 7 8 8 8 8 7 7 7 7 7 8
Wind_Direction
315 315 318 318 319 322 323 324 327 328 331 332 334 333 330 324 321 291 273 178 221 261 283 276 289 283 276 276 276 318 310 66 291 306 303 350 287 343 279 122 157 192 188 183 243 259 147 360 23 329 23 357 353 345
310 312 315 315 315 318 321 322 323 325 326 326 327 328 328 322 315 282 269 153 214 237 275 302 286 273 268 276 288 262 290 315 295 309 344 307 302 301 326 27 123 137 354 351 3 35 331 312 58 49 11 356 350 342
308 310 311 311 312 314 318 320 321 321 323 322 322 321 323 319 302 252 271 146 208 261 281 242 274 21 226 225 207 245 248 303 298 12 295 277 296 340 345 36 287 7 343 306 275 32 340 33 20 14 359 350 335 340
302 306 307 308 311 312 315 318 320 320 320 321 319 315 318 315 292 236 231 183 243 295 286 353 178 327 246 185 186 206 225 262 281 285 269 285 318 28 345 339 325 6 336 337 341 48 347 261 345 341 339 343 337 337
295 299 302 305 310 314 315 316 318 319 318 320 321 319 318 312 284 228 251 237 200 281 312 312 302 216 298 194 239 221 217 248 273 257 230 328 3 326 203 145 31 351 359 340 4 19 272 299 308 323 325 337 330 334
295 294 296 304 306 312 314 316 317 319 318 320 325 320 313 299 210 209 213 177 187 183 273 292 357 266 331 73 127 84 220 215 238 266 311 312 65 316 308 34 110 331 295 290 303 308 309 293 307 324 329 321 324 320
293 295 294 301 304 305 313 316 318 319 318 318 324 323 310 239 188 261 9 65 140 163 248 275 277 116 328 295 166 150 225 280 298 325 318 331 350 305 296 15 6 348 335 325 305 304 302 317 321 320 316 316 321 315
293 294 295 296 299 300 311 316 320 318 315 317 325 327 346 147 262 213 107 144 161 238 226 282 290 276 24 337 340 18 273 276 311 327 335 351 323 335 4 348 333 329 322 308 334 317 300 299 299 302 320 317 317 322
296 297 299 297 298 303 310 315 322 319 315 317 321 172 214 228 204 78 355 160 222 296 285 238 301 306 6 58 274 252 273 225 51 348 30 316 17 7 314 320 309 308 308 306 306 303 303 301 298 305 318 323 317 319
301 303 301 299 298 301 311 316 322 322 316 311 256 231 202 59 327 136 192 184 195 182 224 256 347 287 331 333 299 290 230 316 256 74 146 335 7 25 339 323 346 332 327 324 299 303 312 313 315 311 310 314 313 311
311 309 308 304 302 301 309 316 325 325 294 331 339 317 348 308 230 222 207 222 170 218 201 229 261 291 120 305 319 299 300 305 266 90 289 113 15 6 2 330 310 330 329 321 322 307 283 287 299 306 307 307 305 308
309 310 308 305 302 299 307 316 316 309 329 314 305 305 303 257 212 233 203 160 221 270 170 250 12 245 126 256 271 268 282 265 4 342 237 28 20 3 360 355 353 359 13 348 355 350 348 319 312 307 306 307 305 302
308 306 307 306 303 301 307 315 316 304 296 255 205 230 222 204 236 216 199 180 205 183 176 223 297 79 175 250 252 287 281 259 310 261 9 297 359 7 0 356 355 359 358 13 11 3 360 352 348 341 327 318 312 298
320 310 306 303 299 303 307 308 322 323 277 255 252 260 223 198 232 210 206 216 112 228 213 253 273 234 184 223 254 243 270 290 255 253 226 8 359 353 349 357 359 358 3 2 6 5 356 20 352 342 355 354 338 314
318 316 303 296 311 322 315 317 311 260 254 257 200 242 228 239 240 224 229 215 190 226 219 205 207 230 184 249 213 278 219 235 238 229 297 334 340 345 344 348 352 358 359 2 3 15 13 354 355 356 6 1 347 337
319 309 268 316 310 315 324 314 268 205 229 240 235 255 232 253 242 211 222 235 183 193 186 242 242 223 208 213 203 221 233 229 231 221 278 335 338 346 344 340 344 350 353 359 360 8 6 7 355 357 13 10 5 1
311 246 318 283 300 303 306 259 203 224 237 227 234 231 261 271 278 281 238 239 157 202 242 210 230 232 117 222 229 193 214 216 233 262 289 312 314 349 337 333 340 344 347 356 2 3 360 355 357 7 17 12 355 352
281 306 315 304 305 289 253 223 245 241 242 236 247 242 218 255 273 262 232 210 206 218 234 235 250 210 216 200 203 210 229 251 253 279 293 267 234 236 272 316 328 339 343 349 355 3 15 0 357 354 357 353 358 350
316 311 301 297 301 297 274 225 236 260 242 263 256 263 257 259 252 259 264 229 227 252 231 211 239 235 232 235 248 262 241 230 248 213 235 225 214 202 259 274 301 333 345 345 342 358 2 25 1 352 357 2 4 1
300 291 282 307 202 224 257 237 226 260 264 292 264 254 237 257 272 251 244 218 208 209 211 226 237 247 250 231 226 261 283 212 223 236 232 166 199 215 218 274 335 322 315 343 340 10 348 16 4 353 354 11 18 2
295 282 314 219 208 234 274 276 242 249 284 263 287 272 271 226 247 240 237 210 215 232 235 238 249 250 245 253 264 253 247 219 228 249 286 256 162 213 208 205 237 287 325 349 344 359 356 23 354 348 349 3 348 4
269 33 281 209 247 230 251 238 256 322 257 266 272 251 268 264 262 252 219 215 238 237 244 252 259 254 247 242 226 226 246 217 222 187 141 153 229 215 215 230 290 326 316 2 346 348 12 36 353 348 4 359 9 16
241 220 230 235 233 232 256 217 233 220 245 237 228 246 226 224 227 149 224 229 254 270 277 280 271 267 261 259 231 217 217 210 206 212 182 220 197 226 220 238 260 309 314 19 346 351 8 87 28 341 3 357 6 8
126 226 233 229 209 252 234 225 219 256 239 233 241 253 260 249 155 237 245 255 268 335 289 288 276 257 223 241 232 225 203 213 213 190 191 210 214 199 229 273 185 305 342 340 342 337 5 12 352 13 13 1 3 10
224 216 225 236 228 227 227 230 224 227 237 243 248 256 247 196 240 245 233 256 40 24 2 332 282 267 263 233 194 199 188 200 203 187 187 214 163 157 169 155 129 52 333 17 2 7 24 15 19 15 23 17 9 3
222 212 210 217 225 217 215 232 224 241 239 245 246 245 251 226 236 240 181 96 60 38 15 352 341 315 279 255 262 206 187 215 190 201 160 183 176 183 160 264 208 137 43 82 48 41 40 33 31 21 25 23 18 10
239 229 208 222 238 247 255 257 275 273 257 240 231 216 213 227 232 155 129 103 69 39 355 345 349 334 316 296 252 250 176 182 191 177 145 150 137 152 224 163 146 103 125 116 83 34 20 30 35 32 34 47 30 19
232 245 234 224 226 230 259 263 275 265 247 240 234 211 204 222 246 87 94 89 4 331 307 314 322 332 321 317 235 185 152 136 127 129 123 121 134 153 151 128 108 42 107 56 31 69 48 36 45 42 42 43 40 36
233 236 256 252 250 255 239 244 248 256 270 280 277 276 283 313 349 320 316 347 329 317 311 308 320 315 281 272 276 194 170 174 176 175 181 177 168 176 175 147 157 155 127 107 50 37 42 42 52 62 64 56 55 48
235 232 247 247 248 248 249 255 264 274 283 290 291 286 284 288 5 15 351 340 330 320 318 304 293 273 267 230 179 215 229 209 216 217 207 206 200 154 173 168 164 157 158 154 140 133 168 174 156 97 62 66 70 70
248 251 233 233 252 258 261 262 258 262 264 265 267 264 261 275 69 48 24 345 340 353 339 332 307 215 293 8 327 246 182 180 181 196 341 3 113 158 168 168 172 161 165 165 160 154 147 116 91 86 82 83 81 74
237 240 243 245 244 248 260 261 257 261 261 255 250 245 242 224 186 69 9 348 2 9 17 353 356 23 15 26 19 9 12 99 109 105 112 107 99 105 132 160 177 177 158 158 144 135 131 122 125 114 94 88 84 83
236 245 249 263 257 253 225 238 262 252 246 243 251 249 224 146 86 51 44 12 7 1 4 4 25 46 67 74 73 59 46 61 61 51 55 54 51 59 72 65 70 110 135 136 132 131 131 125 118 112 103 95 87 81